Regional Weather Roundup
Issued by NWS

Home | Current Version | Previous Version | Graphics & Text | Print | Product List | Glossary On
Versions: 1 2 3 4 5 6 7 8 9 10 11 12 13 14 15 16 17 18 19 20 21 22 23 24 25 26 27 28 29 30 31 32 33 34 35 36 37 38 39 40 41 42 43 44 45 46 47 48 49 50
000
ASUS43 KMKX 021700
RWRWI

WISCONSIN REGIONAL WEATHER ROUNDUP
NATIONAL WEATHER SERVICE MILWAUKEE/SULLIVAN WI
1100 AM CST FRI DEC 02 2016

NOTE: "FAIR" INDICATES FEW OR NO CLOUDS BELOW 12,000 FEET WITH NO
SIGNIFICANT WEATHER AND/OR OBSTRUCTIONS TO VISIBILITY.

WIZ001-002-006>008-014>016-023>028-021800-
NORTHWEST WISCONSIN

CITY           SKY/WX    TMP DP  RH WIND       PRES   REMARKS
SUPERIOR ARPT  CLOUDY    30  23  75 NW7       30.21S WCI  23
ASHLAND        NOT AVBL
HAYWARD        NOT AVBL
SIREN          CLOUDY    30  24  77 N7        30.21R WCI  23
CUMBERLAND     CLOUDY    30  23  74 NW8       30.19R WCI  23
RICE LAKE      CLOUDY    31  24  74 W8        30.20R WCI  23
CHETEK         CLOUDY    30  24  75 CALM      30.19R
LADYSMITH      CLOUDY    31  24  74 NW7       30.18R WCI  24
EAU CLAIRE     NOT AVBL
MENOMONIE      CLOUDY    32  23  70 W7        30.21R WCI  26
NEW RICHMOND   CLOUDY    31  25  77 NW9       30.21R WCI  23
OSCEOLA        CLOUDY    32  25  77 NW5       30.24R WCI  27
$$

WIZ003>005-009-010-017-018-021800-
NORTH CENTRAL WISCONSIN

CITY           SKY/WX    TMP DP  RH WIND       PRES   REMARKS
MANITOWISH WTR CLOUDY    27  27  99 NW8       30.12R WCI  19
ARBOR VITAE    CLOUDY    32  28  84 NW7       30.11S WCI  25
WOODRUFF       CLOUDY    32  28  84 NW7       30.11S WCI  25
RHINELANDER    NOT AVBL
EAGLE RIVER    CLOUDY    28  26  89 NW10      30.10R WCI  19
LAND O LAKES   CLOUDY    29  28  96 NW5       30.11R FOG     WCI  24
PHILLIPS       CLOUDY    28  24  84 W3        30.13R
TOMAHAWK       CLOUDY    29  23  76 NW7       30.13S WCI  22
MEDFORD        CLOUDY    28  22  78 NW7       30.14R WCI  21
MERRILL        CLOUDY    30  24  77 NW7       30.14R WCI  24
$$

WIZ029-030-035-036-043>047-021800-
CENTRAL WISCONSIN

CITY           SKY/WX    TMP DP  RH WIND       PRES   REMARKS
WAUSAU         NOT AVBL
MOSINEE        CLOUDY    30  25  80 NW9       30.16R WCI  22
MARSHFIELD     NOT AVBL
STEVENS POINT  CLOUDY    29  22  74 NW5       30.16R WCI  24
WAUPACA        CLOUDY    33  24  69 NW7       30.16S WCI  27
WAUTOMA        NOT AVBL
WISC RAPIDS    NOT AVBL
CAMP DOUGLAS   NOT AVBL
$$

WIZ011>013-019>022-031-037>040-048>050-021800-
NORTHEAST WISCONSIN

CITY           SKY/WX    TMP DP  RH WIND       PRES   REMARKS
ANTIGO         CLOUDY    30  24  79 NW9       30.11R WCI  21
SHAWANO        CLOUDY    36  26  67 NW7       30.14R WCI  30
OCONTO         CLOUDY    34  25  69 NW7       30.12S WCI  28
STURGEON BAY   NOT AVBL
GREEN BAY      NOT AVBL
MANITOWOC      NOT AVBL
APPLETON       CLOUDY    32  21  64 NW8       30.13R WCI  25
CLINTONVILLE   CLOUDY    32  23  69 W9        30.14R WCI  24
OSHKOSH        NOT AVBL
$$

WIZ032>034-041-042-053>061-021800-
SOUTHWEST WISCONSIN

CITY           SKY/WX    TMP DP  RH WIND       PRES   REMARKS
LA CROSSE      NOT AVBL
SPARTA         CLOUDY    31  23  70 NW9       30.21R WCI  23
VIROQUA        CLOUDY    31  25  78 NW8       30.18R WCI  23
BOSCOBEL       NOT AVBL
PRAIRIE DU CHI CLOUDY    34  23  64 NW9       30.22R WCI  27
PLATTEVILLE    CLOUDY    34  29  80 NW13      30.19R WCI  25
$$

WIZ056-057-062-063-064-067-068-021800-
SOUTH CENTRAL WISCONSIN

CITY           SKY/WX    TMP DP  RH WIND       PRES   REMARKS
REEDSBURG      CLOUDY    32  23  69 NW9       30.18R WCI  24
BARABOO/DELLS  CLOUDY    32  23  68 NW7       30.17R WCI  26
LONE ROCK      CLOUDY    34  23  64 W10       30.20R WCI  26
MINERAL POINT  CLOUDY    34  27  75 NW10G16   30.17R WCI  26
MADISON        NOT AVBL
MIDDLETON      CLOUDY    34  25  68 NW10      30.18R WCI  26
WATERTOWN      CLOUDY    33  24  69 NW9       30.16R WCI  25
MONROE         CLOUDY    34  27  75 NW7       30.16R WCI  28
JANESVILLE     CLOUDY    37  28  70 N7        30.16R WCI  32
$$

WIZ051-052-058>065-066-070>072-021800-
SOUTHEAST WISCONSIN

CITY           SKY/WX    TMP DP  RH WIND       PRES   REMARKS
MILWAUKEE      NOT AVBL
WAUKESHA       CLOUDY    32  21  64 NW14      30.16R WCI  22
MILWAUKEE/TIMM CLOUDY    34  19  55 W12       30.17R WCI  25
RACINE         NOT AVBL
BURLINGTON     CLOUDY    34  26  72 NW15      30.16S WCI  24
KENOSHA        NOT AVBL
FOND DU LAC    NOT AVBL
SHEBOYGAN      NOT AVBL
WEST BEND      CLOUDY    32  25  74 NW10      30.15R WCI  24
JUNEAU         CLOUDY    32  24  73 W7        30.16S WCI  26
$$

LSZ147-162-021800-
LAKE SUPERIOR

STATION/POSITION TIME  TEMP    WIND        PRES    WAVE
                       AIR SEA DIR/SP/G            HT/PER
                 (UTC) (F)     (DEG/KT/KT) (MB)    (FT/S)
DEVILS ISLAND    1600   32     290/  9/ 12 1022.2R
PORT WING        1630   31     290/  8/ 11 1022.7R
SAXON HARBOR     1640   31     250/  4/  9 1021.7R
$$

LMZ867-665-643>646-021800-
LAKE MICHIGAN

STATION/POSITION TIME  TEMP    WIND        PRES    WAVE
                       AIR SEA DIR/SP/G            HT/PER
                 (UTC) (F)     (DEG/KT/KT) (MB)    (FT/S)
CHAMBERS ISLAND  1640   35     290/  6/ 11 1019.0S
NORTHPORT PIER   1640   35     300/  9/ 16 1018.6R
SISTER BAY       1623   36     310/ 18/ 20   N/A
ALGOMA LAKESHORE 1551          330/ 10/ 14   N/A
KEWAUNEE LAKESHO 1630   34     300/  4/  9 1019.6R
SHEBOYGAN LAKESH 1600   34     340/ 10/ 12 1020.9R
PORT WASHINGTON  1630   35     320/  5/ 11 1022.0R
MILWAUKEE LAKESH 1630   35     310/  8/ 10   N/A
S MID LAKE BUOY  1550   37 49  300/ 14/ 17 1020.5R   4/ 5
KENOSHA   LAKESH 1600   36     300/ 14/ 17 1021.0
$$

TC  - TEMPERATURE IN CELSIUS
VSB - VISIBILITY IN STATUTE MILES
WCI - WIND CHILL INDEX
HX  - HEAT INDEX





USA.gov is the U.S. government's official web portal to all federal, state and local government web resources and services.